Flag for U.S.A. Weather past 2 weeks in Greenville, South Carolina, U.S.A.

Now
70 °F

Sunny.


Feels Like: 71 °F
Forecast: 64 / 77 °F
Wind: 7 mph from East

Location: Greenville Downtown Airport

Current Time: Sep 17, 2014 at 8:49:14 PM

Latest Report: Sep 17, 2014 at 7:53 PM


Visibility: 10 mi

Pressure: 29.93 "Hg

Humidity: 79%

Dew point: 63 °F

Location of GreenvilleLocation

Historic Weather in Greenville — Graph

°F

Greenville temperature yesterday

Maximum temperature yesterday: 86 °F (at 2:53 PM)
Minimum temperature yesterday: 69 °F (at 11:53 PM)
Average temperature yesterday: 75 °F

Past Weeks' High & Low Weather Summary

 TemperatureHumidityPressure
High92 °F (Sep 3, 3:53 PM)97% (Sep 13, 5:53 AM)30.27 "Hg (Sep 13, 5:53 AM)
Low62 °F (Sep 14, 6:53 AM)46% (Sep 2, 6:53 PM)29.91 "Hg (Sep 17, 6:53 PM)
Average75 °F78%30.08 "Hg
* Reported Sep 2 6:53 PM — Sep 17 6:53 PM, Greenville, Weather by CustomWeather, © 2014

Note: Actual official high and low records may vary slightly from our data, if they occured in-between our weather recording intervals... More about our weather records

Advertising

Greenville weather history for September 3, 2014

 ConditionsComfort  
Time TempWeatherWind HumidityBarometerVisibility
12:53 AM
Sep 3
76 °FPassing clouds.6 mph77%30.03 "Hg10 mi
1:53 AM76 °FClear.7 mph77%30.03 "Hg10 mi
2:53 AM75 °FClear.5 mph79%30.00 "Hg10 mi
3:53 AM75 °FClear.No wind82%29.99 "Hg10 mi
4:53 AM73 °FClear.7 mph88%29.99 "Hg10 mi
6:01 AM72 °FPassing clouds.5 mph91%30.07 "Hg10 mi
6:53 AM72 °FPassing clouds.5 mph91%30.03 "Hg10 mi
7:04 AM72 °FPassing clouds.3 mph91%30.07 "Hg10 mi
7:53 AM73 °FPassing clouds.No wind88%30.03 "Hg10 mi
8:53 AM77 °FSunny.No wind77%30.03 "Hg10 mi
9:53 AM82 °FSunny.6 mph65%30.04 "Hg10 mi
10:53 AM84 °FSunny.3 mph59%30.05 "Hg10 mi
11:53 AM87 °FSunny.3 mph55%30.06 "Hg10 mi
12:53 PM87 °FSunny.6 mph51%30.05 "Hg10 mi
1:53 PM89 °FSunny.3 mph50%30.03 "Hg10 mi
2:53 PM89 °FPartly sunny.5 mph46%30.02 "Hg10 mi
3:53 PM92 °FMostly cloudy.9 mph46%29.99 "Hg10 mi
4:53 PM89 °FMostly cloudy.5 mph48%29.98 "Hg10 mi
6:00 PM84 °FThunderstorms. Broken clouds.N/A61%30.04 "Hg10 mi
6:57 PM73 °FStrong thunderstorms. Fog.6 mph94%30.10 "Hg1 mi
7:04 PM73 °FThunderstorms. Fog.No wind94%30.10 "Hg1 mi
7:53 PM73 °FThundershowers. Partly sunny.3 mph94%30.06 "Hg9 mi
8:53 PM73 °FHeavy rain. Fog.5 mph90%N/A3 mi
9:53 PM73 °FLight rain. Partly cloudy.3 mph90%N/A10 mi
10:53 PM73 °FPassing clouds.No wind88%N/A10 mi
11:53 PM73 °FPassing clouds.3 mph88%N/A10 mi
Weather by CustomWeather, © 2014

See weather overviewHow to use our weather pages